Weather past 2 weeks in Cayenne, French Guiana

Now
79 °F

Passing clouds.


Feels Like: 82 °F
Forecast: 79 / 87 °F
Wind: 3 mph from East

Location: Cayenne / Rochambeau

Current Time: Oct 31, 2014 at 11:32:39 PM

Latest Report: Oct 31, 2014 at 11:00 PM


Visibility: N/A

Pressure: 29.89 "Hg

Humidity: 84%

Dew point: 73 °F

Location of CayenneLocation

Historic Weather in Cayenne — Graph

°F

Cayenne temperature yesterday

Maximum temperature yesterday: 91 °F (at 3:00 PM)
Minimum temperature yesterday: 73 °F (at 4:30 AM)
Average temperature yesterday: 82 °F

Past Weeks' High & Low Weather Summary

 TemperatureHumidityPressure
High93 °F (Oct 21, 12:30 PM)100% (Oct 17, 5:30 AM)29.98 "Hg (Oct 17, 5:30 AM)
Low70 °F (Oct 18, 6:00 AM)44% (Oct 25, 2:00 PM)29.74 "Hg (Oct 25, 4:00 PM)
Average81 °F78%29.86 "Hg
* Reported Oct 16 10:00 PM — Oct 31 10:30 PM, Cayenne, Weather by CustomWeather, © 2014

Note: Actual official high and low records may vary slightly from our data, if they occured in-between our weather recording intervals... More about our weather records

Advertising

Cayenne weather history for previous 24 hours

 ConditionsComfort  
Time TempWeatherWind HumidityBarometerVisibility
10:30 PM
Oct 31
79 °FWarm.5 mph84%29.92 "HgN/A
10:00 PM79 °FWarm.7 mph89%29.89 "HgN/A
9:30 PM81 °FWarm.6 mph79%29.89 "HgN/A
9:00 PM81 °FWarm.6 mph84%29.89 "HgN/A
8:30 PM81 °FWarm.7 mph84%29.89 "HgN/A
8:00 PM81 °FWarm.7 mph84%29.86 "HgN/A
7:30 PM81 °FWarm.7 mph84%29.86 "HgN/A
7:00 PM82 °FWarm.8 mph79%29.86 "HgN/A
6:30 PM82 °FWarm.8 mph74%29.86 "HgN/A
6:00 PM84 °FWarm.9 mph70%29.83 "HgN/A
5:30 PM86 °FWarm.12 mph66%29.83 "HgN/A
5:00 PM86 °FWarm.14 mph66%29.83 "HgN/A
4:30 PM88 °FPassing clouds.14 mph59%29.83 "HgN/A
4:00 PM90 °FPassing clouds.12 mph55%29.83 "HgN/A
3:30 PM90 °FPassing clouds.17 mph55%29.83 "HgN/A
3:00 PM90 °FPassing clouds.16 mph55%29.83 "HgN/A
2:30 PM90 °FPassing clouds.16 mph55%29.83 "HgN/A
2:00 PM90 °FPassing clouds.16 mph55%29.83 "HgN/A
1:30 PM90 °FPassing clouds.13 mph55%29.86 "HgN/A
1:00 PM90 °FScattered clouds.15 mph55%29.86 "HgN/A
12:30 PM90 °FBroken clouds.16 mph55%29.89 "HgN/A
12:00 PM90 °FPartly sunny.13 mph55%29.89 "HgN/A
11:30 AM88 °FPartly sunny.13 mph55%29.89 "HgN/A
11:00 AM88 °FPartly sunny.15 mph59%29.89 "HgN/A
10:30 AM86 °FPartly sunny.14 mph62%29.92 "HgN/A
10:00 AM86 °FPartly sunny.13 mph66%29.92 "HgN/A
9:30 AM86 °FPartly sunny.12 mph66%29.89 "HgN/A
9:00 AM84 °FBroken clouds.8 mph70%29.89 "HgN/A
8:30 AM82 °FPassing clouds.7 mph74%29.89 "HgN/A
8:00 AM81 °FPassing clouds.3 mph84%29.89 "HgN/A
7:30 AM77 °FWarm.1 mph94%29.86 "HgN/A
7:00 AM73 °FMild.No wind94%29.86 "HgN/A
6:30 AM72 °FMild.No wind94%29.86 "HgN/A
6:00 AM72 °FMild.No wind94%29.83 "HgN/A
5:30 AM72 °FMild.No wind94%29.83 "HgN/A
5:00 AM72 °FMild.No wind94%29.83 "HgN/A
4:30 AM72 °FMild.No wind94%29.83 "HgN/A
4:00 AM72 °FMild.No wind94%29.83 "HgN/A
3:30 AM73 °FMild.No wind89%29.83 "HgN/A
3:00 AM73 °FMild.2 mph94%29.83 "HgN/A
2:30 AM73 °FMild.1 mph89%29.83 "HgN/A
2:00 AM75 °FMild.1 mph89%29.83 "HgN/A
1:30 AM77 °FWarm.3 mph83%29.83 "HgN/A
1:00 AM77 °FWarm.2 mph83%29.86 "HgN/A
12:30 AM77 °FWarm.2 mph83%29.86 "HgN/A
12:00 AM79 °FWarm.2 mph79%29.86 "HgN/A
11:30 PM
Oct 30
79 °FWarm.3 mph79%29.86 "HgN/A
11:00 PM79 °FWarm.5 mph79%29.86 "HgN/A
Weather by CustomWeather, © 2014

See weather overviewHow to use our weather pages